EW4120 Weather Reports


time (UTC)temp
C
wind
direction
speed
KPH
gust
KPH
rain 1hr
cm
rain 24hr
cm
rain mn
cm
humidity
%
barometer
mb
20260510032536 14 0.0 0.0 0.00 0.00 0.00 94 1013.1
20260510031536 15 0.0 0.0 0.00 0.00 0.00 94 1013.1
20260510030536 15 0.0 0.0 0.00 0.00 0.00 94 1013.1
20260510025556 15 0.0 0.0 0.00 0.00 0.00 94 1013.0
20260510024556 15 0.0 0.0 0.00 0.00 0.00 93 1013.0
20260510023637 15 0.0 0.0 0.00 0.00 0.00 93 1012.9
20260510022516 15 0.0 0.0 0.00 0.00 0.00 92 1012.9
20260510021556 15 0.0 0.0 0.00 0.00 0.00 92 1012.7
20260510020516 15 0.0 0.0 0.00 0.00 0.00 92 1012.7
20260510015516 15 0.0 0.0 0.00 0.00 0.00 91 1012.6
20260510014516 16 0.0 0.0 0.00 0.00 0.00 91 1012.5
20260510013516 16 0.0 0.0 0.00 0.00 0.00 91 1012.3
20260510012656 16 0.0 0.0 0.00 0.00 0.00 89 1012.1
20260510011516 16 0.0 0.0 0.00 0.00 0.00 88 1011.7
20260510010556 17 0.0 0.0 0.00 0.00 0.00 89 1011.7
20260510005536 17 0.0 0.0 0.00 0.00 0.00 86 1011.5
20260510004556 17 0.0 0.0 0.00 0.00 0.00 86 1011.3
20260510003516 18 0.0 0.0 0.00 0.00 0.00 85 1011.1
20260510002656 18 0.0 0.0 0.00 0.00 0.00 83 1011.1
20260510001516 19 0.0 0.0 0.00 0.00 0.00 81 1011.0
20260509235538 20 0.0 0.0 0.00 0.00 0.00 79 1010.9
20260509234518 21 0.0 0.0 0.00 0.00 0.00 78 1010.8
20260509233538 21 0.0 1.6 0.00 0.00 0.00 77 1010.6
20260509232517 21 0.0 4.8 0.00 0.00 0.00 76 1010.6
20260509231517 22 0.0 1.6 0.00 0.00 0.00 75 1010.3
20260509230618 22 0.0 3.2 0.00 0.00 0.00 74 1010.4
20260509225517 22 293 1.6 6.4 0.00 0.00 0.00 73 1010.3
20260509224517 22 315 1.6 9.7 0.00 0.00 0.00 71 1010.1
20260509223517 23 0.0 4.8 0.00 0.00 0.00 70 1010.0
20260509222517 23 0.0 3.2 0.00 0.00 0.00 70 1010.2
20260509221558 23 293 1.6 9.7 0.00 0.00 0.00 68 1010.1
20260509220517 23 0.0 4.8 0.00 0.00 0.00 69 1010.2
20260509215538 23 315 1.6 8.0 0.00 0.00 0.00 68 1010.1
20260509214557 23 315 1.6 8.0 0.00 0.00 0.00 68 1010.1
20260509213557 24 0.0 3.2 0.00 0.00 0.00 68 1010.2
20260509212517 23 0.0 3.2 0.00 0.00 0.00 70 1010.1
20260509211517 23 338 1.6 8.0 0.00 0.00 0.00 69 1010.2
20260509210517 24 68 1.6 8.0 0.00 0.00 0.00 66 1010.1
20260509205517 25 0.0 3.2 0.00 0.00 0.00 69 1010.1
20260509204557 24 315 1.6 4.8 0.00 0.00 0.00 70 1009.8
20260509203537 23 0.0 3.2 0.00 0.00 0.00 72 1010.0
20260509202557 22 135 1.6 8.0 0.00 0.00 0.00 70 1010.3
20260509201517 23 315 1.6 6.4 0.00 0.00 0.00 68 1010.2
20260509200557 23 315 1.6 8.0 0.00 0.00 0.00 68 1010.3
20260509195638 23 293 1.6 8.0 0.00 0.00 0.00 73 1010.4
20260509194557 23 315 1.6 8.0 0.00 0.00 0.00 72 1010.4
20260509193517 22 315 1.6 8.0 0.00 0.00 0.00 76 1010.5
20260509192517 22 315 1.6 8.0 0.00 0.00 0.00 77 1010.7
20260509191557 21 0.0 3.2 0.00 0.00 0.00 76 1010.7
20260509190557 21 315 1.6 8.0 0.00 0.00 0.00 74 1010.7
20260509185517 22 0.0 1.6 0.00 0.00 0.00 72 1010.8
20260509184517 21 315 1.6 4.8 0.00 0.00 0.00 73 1010.8
20260509183517 22 315 1.6 6.4 0.00 0.00 0.00 73 1010.7
20260509182517 21 0.0 3.2 0.00 0.00 0.00 74 1010.9
20260509181517 21 315 1.6 8.0 0.00 0.00 0.00 75 1011.2
20260509180517 21 293 3.2 11.3 0.00 0.00 0.00 73 1011.2
20260509175517 21 315 1.6 6.4 0.00 0.00 0.00 76 1011.3
20260509173557 21 248 1.6 6.4 0.00 0.00 0.00 73 1011.3
20260509172517 21 315 1.6 9.7 0.00 0.00 0.00 72 1011.3
20260509171517 21 293 3.2 11.3 0.00 0.00 0.00 73 1011.3
20260509170537 21 315 1.6 6.4 0.00 0.00 0.00 74 1011.4
20260509165537 21 0.0 4.8 0.00 0.00 0.00 75 1011.6
20260509164517 21 0.0 4.8 0.00 0.00 0.00 77 1011.7
20260509163517 21 315 1.6 6.4 0.00 0.00 0.00 78 1012.0
20260509162517 21 270 1.6 8.0 0.00 0.00 0.00 79 1012.3
20260509161537 21 315 1.6 4.8 0.00 0.00 0.00 82 1012.3
20260509160557 21 315 1.6 9.7 0.00 0.00 0.00 79 1012.4
20260509155537 20 315 1.6 8.0 0.00 0.00 0.00 82 1012.5
20260509154517 19 315 1.6 9.7 0.00 0.00 0.00 82 1012.3
20260509153517 20 0.0 1.6 0.00 0.00 0.00 84 1012.2
20260509152537 19 338 1.6 6.4 0.00 0.00 0.00 84 1012.3
20260509151517 18 315 1.6 4.8 0.00 0.00 0.00 86 1012.4
20260509150537 18 0.0 3.2 0.00 0.00 0.00 88 1012.4
20260509145637 17 0.0 3.2 0.00 0.00 0.00 86 1012.5
20260509144537 17 0.0 4.8 0.00 0.00 0.00 86 1012.4
20260509143517 17 0.0 1.6 0.00 0.00 0.00 86 1012.3
20260509142537 17 0.0 6.4 0.00 0.00 0.00 87 1012.6
20260509141517 17 0.0 3.2 0.00 0.00 0.00 87 1012.6
20260509140617 17 0.0 4.8 0.00 0.00 0.00 87 1012.6
20260509135617 16 0.0 1.6 0.00 0.00 0.00 87 1012.8
20260509134537 16 0.0 0.0 0.00 0.00 0.00 88 1012.7
20260509133517 16 0.0 1.6 0.00 0.00 0.00 90 1013.0
20260509132516 15 0.0 1.6 0.00 0.00 0.00 89 1013.5
20260509131516 15 0.0 1.6 0.00 0.00 0.00 90 1013.7
20260509130557 15 0.0 3.2 0.00 0.00 0.00 92 1013.6
20260509125516 13 0.0 1.6 0.00 0.00 0.00 95 1013.7
20260509124536 13 0.0 1.6 0.00 0.00 0.00 98 1013.7
20260509123516 12 0.0 1.6 0.00 0.00 0.00 98 1013.6
20260509122516 12 0.0 0.0 0.00 0.00 0.00 98 1013.2
20260509121637 11 0.0 0.0 0.00 0.00 0.00 98 1013.4
20260509120536 10 0.0 0.0 0.00 0.00 0.00 98 1013.4
20260509115516 10 0.0 0.0 0.00 0.00 0.00 98 1013.3
20260509114536 9 0.0 0.0 0.00 0.00 0.00 97 1013.1
20260509113516 8 0.0 0.0 0.00 0.00 0.00 97 1013.0
20260509112556 8 0.0 0.0 0.00 0.00 0.00 97 1013.1
20260509111556 8 0.0 0.0 0.00 0.00 0.00 97 1013.2
20260509110516 7 0.0 0.0 0.00 0.00 0.00 97 1013.1
20260509105516 7 0.0 0.0 0.00 0.00 0.00 96 1013.1
20260509104516 6 0.0 0.0 0.00 0.00 0.00 96 1012.7
20260509103616 6 0.0 0.0 0.00 0.00 0.00 96 1012.6
20260509102617 6 0.0 0.0 0.00 0.00 0.00 95 1012.4
20260509101516 6 0.0 0.0 0.00 0.00 0.00 95 1012.4
20260509100536 6 0.0 0.0 0.00 0.00 0.00 95 1012.4
20260509095516 6 0.0 0.0 0.00 0.00 0.00 95 1012.3
20260509094636 6 0.0 0.0 0.00 0.00 0.00 95 1012.3
20260509093536 6 0.0 0.0 0.00 0.00 0.00 95 1012.3
20260509092516 7 0.0 0.0 0.00 0.00 0.00 95 1012.3
20260509091536 7 0.0 0.0 0.00 0.00 0.00 95 1012.5
20260509090536 7 0.0 0.0 0.00 0.00 0.00 95 1012.7
20260509085516 7 0.0 0.0 0.00 0.00 0.00 95 1012.8
20260509084536 7 0.0 0.0 0.00 0.00 0.00 95 1012.9
20260509083516 7 0.0 0.0 0.00 0.00 0.00 95 1012.9
20260509082516 7 0.0 0.0 0.00 0.00 0.00 94 1012.8
20260509081516 7 0.0 0.0 0.00 0.00 0.00 95 1012.9
20260509080556 7 0.0 0.0 0.00 0.00 0.00 94 1012.8
20260509075536 7 0.0 0.0 0.00 0.00 0.00 94 1013.0
20260509074637 7 0.0 0.0 0.00 0.00 0.00 94 1012.9
20260509073536 7 0.0 0.0 0.00 0.00 0.00 94 1013.0
20260509072616 7 0.0 0.0 0.00 0.00 0.00 94 1013.1
20260509071536 7 0.0 0.0 0.00 0.00 0.00 93 1013.3
20260509070516 7 0.0 0.0 0.00 0.00 0.00 93 1013.1
20260509065516 7 0.0 0.0 0.00 0.00 0.00 93 1013.4
20260509064536 8 0.0 0.0 0.00 0.00 0.00 93 1013.4
20260509063536 8 0.0 0.0 0.00 0.00 0.00 93 1013.4
20260509062536 8 0.0 0.0 0.00 0.00 0.00 93 1013.6
20260509061556 8 0.0 0.0 0.00 0.00 0.00 92 1013.8
20260509060516 8 0.0 0.0 0.00 0.00 0.00 92 1014.0
20260509055536 8 0.0 0.0 0.00 0.00 0.00 92 1014.1
20260509054516 8 0.0 0.0 0.00 0.00 0.00 92 1014.1
20260509053516 8 0.0 0.0 0.00 0.00 0.00 92 1014.1
20260509052536 8 0.0 0.0 0.00 0.00 0.00 92 1014.4
20260509051516 8 0.0 0.0 0.00 0.00 0.00 92 1014.6
20260509050536 8 0.0 0.0 0.00 0.00 0.00 92 1014.6
20260509045618 8 0.0 0.0 0.00 0.00 0.00 92 1014.7
20260509044538 8 0.0 0.0 0.00 0.00 0.00 91 1014.8
20260509043518 9 0.0 0.0 0.00 0.00 0.00 90 1014.9
20260509042538 9 0.0 0.0 0.00 0.00 0.00 90 1014.7
20260509041517 9 0.0 0.0 0.00 0.00 0.00 90 1014.7
20260509040558 9 0.0 0.0 0.00 0.00 0.00 89 1014.7
20260509035536 9 0.0 0.0 0.00 0.00 0.00 88 1014.7
20260509034536 9 0.0 0.0 0.00 0.00 0.00 88 1014.7
20260509033516 10 0.0 0.0 0.00 0.00 0.00 87 1014.6